This is the latest recevied weather packets stored in our database for station/object OK1TBM-13. If no packets are shown the sender has not sent any weather packets the latest 10 day(s).
| Time | Temp. | Humidity | Pressure | Rain* | Wind** | Luminosity | Snow |
|---|---|---|---|---|---|---|---|
| 1787826607 | 28.33° C | 43% | 1017.3 hPa | 0 mm | - | 730 W/m² | - |
| 1787826301 | 28.33° C | 43% | 1017.3 hPa | 0 mm | - | 722 W/m² | - |
| 1787826001 | 28.33° C | 44% | 1017.3 hPa | 0 mm | - | 720 W/m² | - |
| 1787825701 | 28.33° C | 44% | 1017.3 hPa | 0 mm | - | 712 W/m² | - |
| 1787825402 | 28.33° C | 44% | 1017.3 hPa | 0 mm | - | 716 W/m² | - |
| 1787825102 | 27.22° C | 45% | 1017.3 hPa | 0 mm | - | 708 W/m² | - |
| 1787824808 | 28.33° C | 44% | 1017.3 hPa | 0 mm | - | 700 W/m² | - |
| 1787824502 | 27.78° C | 46% | 1017.3 hPa | 0 mm | - | 487 W/m² | - |
| 1787824201 | 27.22° C | 46% | 1017.3 hPa | 0 mm | - | 682 W/m² | - |
| 1787823902 | 26.67° C | 46% | 1017.3 hPa | 0 mm | - | 590 W/m² | - |
| 1787823601 | 27.22° C | 47% | 1017.3 hPa | 0 mm | - | 669 W/m² | - |
| 1787823301 | 26.67° C | 46% | 1017.6 hPa | 0 mm | - | 669 W/m² | - |
| 1787823002 | 26.67° C | 47% | 1017.6 hPa | 0 mm | - | 652 W/m² | - |
| 1787822702 | 26.67° C | 48% | 1017.3 hPa | 0 mm | - | 630 W/m² | - |
| 1787822101 | 26.11° C | 48% | 1017.3 hPa | 0 mm | - | 627 W/m² | - |
| 1787821801 | 25.56° C | 49% | 1017.6 hPa | 0 mm | - | 624 W/m² | - |
| 1787821501 | 25.56° C | 49% | 1017.6 hPa | 0 mm | - | 408 W/m² | - |
| 1787821202 | 26.11° C | 50% | 1017.6 hPa | 0 mm | - | 598 W/m² | - |
| 1787820902 | 26.11° C | 50% | 1017.6 hPa | 0 mm | - | 588 W/m² | - |
| 1787820301 | 25.56° C | 49% | 1017.6 hPa | 0 mm | - | 567 W/m² | - |
| 1787820002 | 25° C | 52% | 1017.6 hPa | 0 mm | - | 560 W/m² | - |
| 1787819702 | 25.56° C | 51% | 1017.6 hPa | 0 mm | - | 549 W/m² | - |
| 1787819401 | 25° C | 51% | 1017.6 hPa | 0 mm | - | 535 W/m² | - |
| 1787819107 | 25° C | 52% | 1017.6 hPa | 0 mm | - | 525 W/m² | - |
| 1787818502 | 23.89° C | 54% | 1017.6 hPa | 0 mm | - | 424 W/m² | - |
* Rain latest hour (hover to see other rain measurements)
** Current wind speed in m/s (hover to see current wind gust speed)